Tracking 27419 objects as of 10-Jun-2023
HD Live streaming from Space Station
objects crossing your sky now

FREGAT DEB

Track FREGAT DEB now!
10-day predictions


NORAD ID: 46411
Int'l Code: 2011-037LQ
Perigee: 479.4 km
Apogee: 3,350.9 km
Inclination: 51.5 °
Period: 125.1 minutes
Semi major axis: 8286 km
RCS: Unknown
Launch date: July 18, 2011
Source: Commonwealth of Independent States (former USSR) (CIS)
Launch site: TYURATAM MISSILE AND SPACE COMPLEX (TTMTR)

Note: This is SATELLITE DEBRIS
Your satellite tracking list
Your tracking list is empty




NASA's NSSDC Master Catalog

Two Line Element Set (TLE):
1 46411U 11037LS  23160.09503971  .00022992  00000-0  70920-2 0  9998
2 46411  51.4979  53.9948 1732722  26.7587 341.2923 11.50993319119938
Source of the keplerian elements: AFSPC